QPF
0.00 0.00 0.00 0.00 0.00 0.00 0.00 0.00 0.00 0.08 0.23 0.12 0.05 0.02 0.07 0.03 0.06 0.00 0.00 0.00 0.00 0.00 0.00 0.00 0.00 0.00 0.00 0.00 0.00 0.00 0.00 0.00 0.00 0.00 0.05 0.07 0.03 0.08 0.05 0.01 0.00 0.00 0.00 0.02
0.00 0.00 0.00 0.00 0.00 0.00 0.00 0.00 0.00 0.02 0.06 0.08 0.04 0.13 0.35 0.22 0.05 0.00 0.00 0.00 0.00 0.00 0.00 0.00 0.00 0.00 0.00 0.00 0.00 0.00 0.00 0.00 0.00 0.00 0.01 0.00 0.00 0.05 0.05 0.01 0.00 0.00 0.00 0.01
0.00 0.00 0.00 0.00 0.00 0.00 0.00 0.00 0.00 0.00 0.00 0.01 0.01 0.02 0.16 0.27 0.10 0.01 0.00 0.00 0.00 0.00 0.00 0.00 0.00 0.00 0.00 0.00 0.00 0.00 0.00 0.00 0.00 0.00 0.00 0.00 0.00 0.03 0.00 0.00 0.00 0.00 0.00 0.00
0.00 0.00 0.00 0.00 0.00 0.00 0.00 0.00 0.00 0.00 0.00 0.01 0.01 0.00 0.00 0.14 0.27 0.01 0.00 0.00 0.00 0.00 0.00 0.00 0.00 0.00 0.00 0.00 0.00 0.00 0.00 0.00 0.00 0.00 0.00 0.00 0.00 0.02 0.02 0.01 0.02 0.01 0.00 0.00
0.00 0.00 0.00 0.00 0.00 0.00 0.00 0.00 0.00 0.00 0.00 0.00 0.00 0.01 0.00 0.06 0.18 0.04 0.01 0.00 0.00 0.00 0.00 0.00 0.00 0.00 0.00 0.00 0.00 0.00 0.00 0.00 0.00 0.00 0.00 0.00 0.00 0.00 0.00 0.01 0.02 0.02 0.00 0.00
0.00 0.00 0.00 0.00 0.00 0.00 0.00 0.00 0.00 0.02 0.01 0.00 0.00 0.01 0.02 0.01 0.01 0.06 0.04 0.03 0.02 0.00 0.01 0.00 0.00 0.00 0.00 0.00 0.00 0.00 0.00 0.00 0.00 0.00 0.00 0.00 0.00 0.00 0.00 0.01 0.02 0.05 0.01 0.01
0.00 0.00 0.00 0.00 0.00 0.00 0.00 0.00 0.00 0.01 0.01 0.00 0.00 0.01 0.00 0.00 0.00 0.00 0.00 0.00 0.04 0.05 0.06 0.02 0.01 0.00 0.00 0.00 0.00 0.00 0.00 0.00 0.00 0.00 0.00 0.00 0.00 0.00 0.00 0.04 0.00 0.00 0.00 0.00
0.00 0.00 0.00 0.00 0.00 0.00 0.00 0.00 0.00 0.00 0.00 0.00 0.00 0.00 0.00 0.00 0.01 0.00 0.00 0.05 0.08 0.13 0.15 0.10 0.02 0.00 0.00 0.00 0.00 0.00 0.00 0.00 0.00 0.00 0.00 0.01 0.00 0.00 0.00 0.00 0.00 0.00 0.00 0.00
0.00 0.00 0.00 0.00 0.00 0.00 0.00 0.00 0.00 0.00 0.00 0.00 0.01 0.00 0.00 0.00 0.01 0.00 0.00 0.00 0.03 0.09 0.11 0.08 0.02 0.01 0.03 0.01 0.00 0.00 0.00 0.00 0.00 0.00 0.00 0.02 0.00 0.00 0.00 0.00 0.00 0.00 0.00 0.00
0.00 0.00 0.00 0.00 0.00 0.00 0.00 0.00 0.00 0.00 0.00 0.00 0.05 0.04 0.04 0.05 0.06 0.01 0.00 0.00 0.00 0.02 0.05 0.03 0.02 0.06 0.05 0.02 0.03 0.04 0.01 0.00 0.00 0.00 0.00 0.00 0.01 0.00 0.00 0.00 0.00 0.00 0.00 0.00
0.00 0.00 0.00 0.00 0.00 0.00 0.00 0.00 0.00 0.00 0.00 0.00 0.01 0.04 0.10 0.14 0.10 0.04 0.04 0.03 0.05 0.04 0.01 0.02 0.15 0.13 0.06 0.08 0.12 0.12 0.15 0.08 0.05 0.01 0.02 0.02 0.00 0.00 0.00 0.00 0.01 0.00 0.00 0.00
0.00 0.00 0.00 0.00 0.00 0.00 0.00 0.00 0.00 0.00 0.00 0.00 0.00 0.02 0.11 0.12 0.08 0.10 0.08 0.08 0.15 0.11 0.04 0.01 0.05 0.06 0.02 0.05 0.07 0.18 0.23 0.12 0.12 0.10 0.10 0.12 0.06 0.02 0.00 0.00 0.01 0.01 0.00 0.00
0.00 0.00 0.00 0.00 0.00 0.00 0.00 0.00 0.00 0.00 0.00 0.00 0.00 0.03 0.12 0.21 0.14 0.12 0.07 0.07 0.10 0.09 0.05 0.04 0.02 0.00 0.00 0.00 0.00 0.01 0.10 0.11 0.19 0.15 0.14 0.16 0.20 0.15 0.07 0.02 0.00 0.02 0.00 0.00
0.00 0.00 0.00 0.00 0.00 0.00 0.00 0.00 0.00 0.00 0.00 0.00 0.00 0.01 0.03 0.08 0.06 0.03 0.04 0.04 0.05 0.04 0.02 0.02 0.01 0.00 0.00 0.00 0.00 0.01 0.01 0.00 0.02 0.03 0.15 0.25 0.22 0.31 0.25 0.14 0.11 0.09 0.06 0.01
0.00 0.00 0.00 0.00 0.00 0.00 0.00 0.00 0.00 0.00 0.00 0.00 0.00 0.04 0.11 0.06 0.00 0.00 0.00 0.00 0.00 0.00 0.00 0.00 0.00 0.00 0.00 0.00 0.01 0.00 0.01 0.01 0.02 0.07 0.01 0.03 0.02 0.22 0.39 0.34 0.23 0.18 0.18 0.09
0.00 0.00 0.00 0.00 0.00 0.00 0.00 0.00 0.00 0.00 0.00 0.00 0.00 0.02 0.04 0.01 0.00 0.00 0.00 0.00 0.00 0.00 0.00 0.00 0.00 0.00 0.00 0.01 0.02 0.04 0.03 0.04 0.10 0.13 0.02 0.03 0.00 0.01 0.09 0.24 0.20 0.11 0.12 0.12
0.00 0.00 0.00 0.00 0.00 0.00 0.00 0.00 0.00 0.00 0.00 0.00 0.00 0.00 0.01 0.02 0.01 0.00 0.00 0.00 0.00 0.00 0.00 0.00 0.00 0.00 0.00 0.00 0.00 0.01 0.02 0.00 0.00 0.01 0.06 0.09 0.07 0.02 0.00 0.00 0.02 0.13 0.22 0.20
0.00 0.00 0.00 0.00 0.00 0.00 0.00 0.00 0.00 0.00 0.00 0.00 0.00 0.00 0.00 0.00 0.00 0.02 0.01 0.00 0.00 0.00 0.00 0.00 0.00 0.00 0.00 0.00 0.00 0.00 0.00 0.00 0.00 0.00 0.02 0.03 0.02 0.01 0.00 0.00 0.00 0.03 0.18 0.29
0.00 0.00 0.00 0.00 0.00 0.00 0.00 0.00 0.00 0.00 0.00 0.00 0.00 0.00 0.00 0.00 0.00 0.00 0.01 0.00 0.00 0.00 0.00 0.00 0.00 0.00 0.00 0.00 0.00 0.00 0.00 0.00 0.00 0.00 0.00 0.00 0.01 0.01 0.00 0.00 0.00 0.02 0.13 0.18
0.00 0.00 0.00 0.00 0.00 0.00 0.00 0.00 0.00 0.00 0.01 0.00 0.00 0.00 0.00 0.00 0.00 0.01 0.00 0.00 0.00 0.00 0.00 0.00 0.00 0.00 0.00 0.00 0.00 0.00 0.00 0.00 0.00 0.00 0.00 0.00 0.00 0.00 0.00 0.00 0.00 0.00 0.00 0.06
0.00 0.00 0.00 0.00 0.00 0.00 0.00 0.00 0.00 0.00 0.00 0.00 0.00 0.00 0.00 0.00 0.00 0.00 0.00 0.00 0.00 0.00 0.00 0.00 0.00 0.00 0.00 0.00 0.00 0.00 0.00 0.00 0.00 0.00 0.00 0.00 0.00 0.00 0.00 0.00 0.00 0.00 0.00 0.00
0.00 0.00 0.00 0.00 0.00 0.00 0.00 0.00 0.00 0.00 0.00 0.00 0.00 0.00 0.00 0.00 0.00 0.00 0.00 0.00 0.00 0.00 0.00 0.00 0.00 0.00 0.00 0.00 0.00 0.00 0.00 0.00 0.00 0.00 0.00 0.00 0.00 0.00 0.00 0.00 0.00 0.00 0.00 0.00
0.00 0.00 0.00 0.00 0.00 0.00 0.00 0.00 0.00 0.00 0.00 0.00 0.00 0.00 0.00 0.00 0.00 0.00 0.00 0.00 0.00 0.00 0.00 0.00 0.00 0.00 0.00 0.00 0.00 0.00 0.00 0.00 0.00 0.00 0.00 0.00 0.00 0.00 0.00 0.00 0.00 0.00 0.00 0.00
0.00 0.00 0.00 0.01 0.01 0.00 0.00 0.00 0.00 0.00 0.00 0.00 0.00 0.00 0.00 0.00 0.00 0.00 0.00 0.00 0.00 0.00 0.00 0.00 0.00 0.00 0.00 0.00 0.00 0.00 0.00 0.00 0.00 0.00 0.00 0.00 0.00 0.00 0.00 0.00 0.00 0.00 0.00 0.00
0.00 0.00 0.00 0.00 0.00 0.00 0.00 0.00 0.00 0.00 0.00 0.00 0.00 0.00 0.00 0.00 0.00 0.00 0.00 0.00 0.00 0.00 0.00 0.00 0.00 0.00 0.00 0.00 0.00 0.00 0.00 0.00 0.00 0.00 0.00 0.00 0.00 0.00 0.00 0.00 0.00 0.00 0.00 0.00
0.00 0.00 0.00 0.00 0.00 0.00 0.00 0.00 0.00 0.00 0.00 0.00 0.00 0.00 0.00 0.00 0.00 0.00 0.00 0.00 0.00 0.00 0.00 0.00 0.00 0.00 0.00 0.00 0.00 0.00 0.00 0.00 0.00 0.00 0.00 0.00 0.00 0.00 0.00 0.00 0.00 0.00 0.00 0.00
MSLP
1007.38 1008.08 1007.99 1007.90 1008.28 1008.12 1008.28 1008.78 1008.86 1009.48 1010.70 1011.40 1011.74 1012.34 1012.24 1012.68 1013.07 1012.71 1012.01 1012.14 1012.50 1012.96 1013.56 1014.08 1014.58 1015.34 1015.91 1016.42 1017.07 1017.55 1017.89 1018.24 1018.57 1019.02 1019.58 1020.17 1020.22 1020.41 1020.45 1020.16 1020.13 1020.10 1020.16 1020.19
1007.94 1007.88 1007.54 1007.51 1007.73 1007.92 1008.13 1008.84 1009.70 1010.29 1010.88 1011.40 1012.23 1012.88 1013.04 1012.79 1012.47 1011.99 1011.66 1011.95 1012.30 1012.98 1013.58 1014.04 1014.78 1015.22 1015.88 1016.52 1016.90 1017.49 1017.78 1018.30 1018.56 1018.87 1019.24 1019.56 1019.98 1020.44 1020.29 1020.29 1020.19 1020.20 1020.18 1020.23
1007.80 1006.99 1006.96 1007.35 1007.34 1007.60 1007.69 1008.26 1009.15 1009.62 1010.66 1012.32 1012.61 1012.24 1012.66 1012.74 1012.27 1011.79 1011.56 1011.85 1012.00 1012.57 1013.38 1013.91 1014.61 1015.08 1015.66 1016.45 1016.90 1017.47 1017.90 1018.18 1018.53 1018.92 1019.46 1019.82 1020.32 1020.37 1020.54 1020.47 1020.34 1020.13 1020.25 1020.34
1007.27 1006.50 1006.74 1006.91 1006.92 1006.91 1007.09 1006.75 1007.92 1009.07 1010.36 1011.43 1012.26 1012.38 1012.06 1011.99 1011.93 1011.66 1011.46 1011.62 1011.82 1012.25 1012.88 1013.45 1014.30 1015.02 1015.52 1016.12 1016.69 1017.32 1017.72 1018.13 1018.59 1018.84 1019.29 1019.62 1020.08 1020.48 1020.55 1020.42 1020.30 1020.06 1020.21 1020.35
1006.59 1006.06 1006.04 1006.07 1005.72 1005.88 1005.81 1006.01 1006.57 1008.25 1010.00 1011.14 1012.01 1012.22 1011.66 1011.52 1012.00 1011.67 1011.34 1011.25 1011.63 1011.78 1012.34 1013.14 1013.87 1014.60 1015.32 1015.95 1016.45 1017.01 1017.54 1017.99 1018.50 1018.79 1019.24 1019.58 1020.02 1020.10 1020.28 1020.40 1020.50 1020.49 1020.40 1020.40
1006.22 1005.26 1005.27 1004.73 1004.37 1004.55 1004.83 1005.78 1007.09 1008.78 1010.31 1010.94 1010.79 1011.48 1011.36 1010.94 1010.34 1011.03 1011.08 1011.35 1011.50 1011.88 1012.35 1013.00 1013.62 1014.31 1015.07 1015.83 1016.46 1016.93 1017.52 1017.84 1018.50 1018.74 1019.22 1019.53 1019.76 1020.06 1020.27 1020.57 1020.79 1020.92 1020.82 1020.70
1005.84 1005.09 1004.55 1004.24 1004.29 1004.10 1004.70 1006.43 1008.12 1009.97 1011.27 1010.54 1010.18 1011.04 1009.47 1009.36 1009.62 1009.58 1010.08 1011.23 1011.88 1012.74 1013.00 1013.18 1014.00 1014.50 1015.18 1015.70 1016.43 1016.90 1017.49 1017.92 1018.20 1018.73 1019.10 1019.38 1019.60 1019.78 1019.99 1020.41 1020.68 1020.76 1020.75 1020.77
1006.42 1005.23 1004.06 1003.44 1003.49 1003.94 1004.82 1005.98 1007.58 1008.84 1009.82 1010.18 1010.13 1010.30 1009.24 1008.30 1009.49 1010.17 1010.74 1011.83 1012.72 1013.25 1013.98 1014.44 1014.49 1014.84 1014.93 1015.32 1016.00 1016.60 1017.28 1017.82 1018.10 1018.60 1018.92 1019.14 1019.29 1019.62 1019.86 1019.92 1020.21 1020.46 1020.43 1020.42
1006.56 1005.40 1003.84 1003.15 1002.94 1003.42 1004.56 1005.66 1006.43 1007.90 1008.98 1010.12 1010.60 1010.32 1009.91 1009.75 1010.39 1010.90 1011.43 1012.17 1013.15 1013.75 1014.19 1015.24 1015.09 1014.79 1015.71 1016.46 1016.67 1016.70 1016.85 1017.32 1017.89 1018.07 1018.63 1018.98 1019.07 1019.28 1019.45 1019.71 1019.87 1019.87 1020.00 1020.03
1006.42 1006.17 1004.78 1003.74 1003.12 1003.54 1004.18 1005.30 1006.82 1008.36 1009.86 1010.91 1011.42 1011.89 1012.18 1011.88 1011.84 1011.67 1012.42 1013.15 1013.99 1014.34 1015.28 1015.49 1016.16 1015.88 1015.98 1016.67 1017.28 1017.40 1017.30 1017.66 1017.95 1018.06 1018.20 1018.39 1018.54 1018.85 1019.12 1019.55 1019.73 1019.64 1019.57 1019.49
1006.68 1006.78 1005.98 1004.81 1004.50 1004.70 1005.17 1006.05 1007.47 1008.61 1009.95 1011.10 1012.20 1013.55 1012.66 1012.94 1013.14 1013.24 1013.48 1013.91 1014.41 1014.96 1015.88 1016.29 1016.59 1016.08 1015.94 1016.26 1017.48 1018.08 1018.36 1017.78 1017.88 1018.02 1018.46 1018.29 1018.17 1018.41 1018.76 1019.13 1019.45 1019.45 1019.36 1019.46
1007.68 1007.88 1007.56 1006.48 1005.38 1004.90 1005.23 1006.24 1007.58 1009.26 1010.56 1011.63 1012.64 1014.26 1013.90 1013.80 1014.13 1014.11 1014.19 1014.29 1014.86 1015.53 1015.76 1016.28 1017.01 1016.78 1016.56 1016.22 1017.00 1018.11 1019.09 1018.57 1018.07 1018.20 1018.04 1018.50 1018.33 1018.26 1018.45 1018.68 1018.88 1018.99 1019.06 1019.13
1008.24 1008.79 1008.44 1007.53 1006.57 1005.98 1006.12 1006.67 1007.47 1008.70 1009.97 1011.31 1012.70 1014.74 1014.74 1014.54 1015.23 1015.40 1014.51 1014.90 1015.64 1016.06 1016.44 1017.06 1017.27 1016.94 1017.21 1017.24 1017.48 1017.88 1018.86 1018.58 1018.08 1018.40 1018.92 1019.09 1019.06 1018.90 1018.50 1018.52 1018.56 1018.76 1018.82 1019.08
1008.56 1009.83 1009.70 1009.72 1008.87 1008.16 1007.55 1007.18 1007.42 1008.56 1010.24 1011.48 1012.85 1014.12 1015.07 1015.28 1015.27 1015.56 1016.24 1016.11 1016.66 1016.75 1016.80 1017.20 1017.27 1017.29 1018.06 1017.85 1018.29 1018.58 1018.49 1017.90 1018.03 1018.72 1018.42 1019.36 1019.55 1019.39 1019.27 1019.13 1018.86 1018.63 1018.68 1018.85
1009.38 1010.56 1010.37 1009.81 1009.21 1008.58 1008.36 1007.84 1007.67 1008.50 1009.36 1010.59 1013.03 1013.43 1014.81 1015.33 1015.96 1016.57 1015.42 1017.42 1017.44 1017.46 1017.59 1017.80 1018.31 1018.60 1018.63 1018.64 1018.96 1018.67 1018.25 1017.82 1017.96 1019.00 1019.31 1019.47 1019.27 1019.00 1018.94 1019.31 1019.13 1019.09 1018.74 1018.77
1010.50 1010.98 1010.94 1010.94 1010.08 1009.47 1008.99 1008.27 1007.72 1008.27 1009.94 1011.18 1012.51 1013.74 1014.65 1015.56 1015.92 1016.62 1017.11 1017.42 1018.26 1018.74 1018.78 1019.17 1019.36 1019.42 1019.45 1019.46 1019.44 1019.16 1018.73 1018.65 1018.85 1019.14 1019.57 1018.90 1018.96 1018.96 1018.71 1019.58 1019.36 1019.10 1018.92 1018.57
1011.62 1011.90 1012.26 1012.45 1011.48 1010.37 1010.00 1009.63 1009.22 1009.02 1009.61 1010.46 1012.30 1013.40 1014.48 1015.77 1016.34 1017.15 1017.64 1018.22 1018.94 1019.12 1019.36 1019.85 1019.84 1020.03 1020.10 1020.10 1020.16 1019.98 1019.93 1019.56 1019.32 1019.40 1019.49 1019.28 1019.13 1019.42 1019.28 1019.34 1019.11 1019.08 1018.97 1018.83
1012.52 1013.10 1013.37 1013.59 1012.68 1011.97 1011.10 1010.20 1009.58 1010.30 1010.95 1011.42 1012.94 1013.86 1014.73 1015.64 1016.97 1017.46 1018.33 1018.89 1019.74 1019.83 1019.86 1020.27 1020.36 1020.86 1021.13 1021.00 1020.90 1020.64 1020.80 1020.76 1020.52 1020.42 1020.32 1020.21 1019.88 1019.78 1019.45 1019.32 1019.27 1019.33 1019.01 1018.70
1013.03 1013.89 1014.52 1014.51 1013.80 1012.31 1011.79 1011.57 1011.02 1010.83 1013.27 1012.90 1013.28 1014.70 1015.60 1016.60 1017.52 1019.10 1019.35 1019.49 1020.04 1020.74 1020.73 1020.96 1021.25 1021.48 1021.62 1021.78 1021.86 1022.08 1022.28 1022.14 1021.82 1021.49 1021.08 1020.65 1020.49 1020.31 1020.13 1020.02 1019.91 1019.56 1019.39 1018.95
1013.89 1014.47 1015.14 1015.50 1014.88 1013.63 1013.02 1011.98 1011.44 1011.31 1014.09 1014.45 1014.08 1015.00 1015.72 1016.75 1018.15 1019.59 1019.82 1019.99 1020.67 1021.18 1021.64 1022.04 1022.54 1022.89 1023.01 1023.31 1023.08 1023.19 1023.37 1023.22 1023.00 1022.50 1022.07 1021.46 1021.00 1020.68 1020.50 1020.32 1020.22 1020.12 1019.85 1019.66
1015.66 1015.95 1016.22 1016.13 1015.48 1014.47 1013.72 1012.95 1012.23 1014.06 1014.53 1014.48 1014.76 1015.41 1016.15 1017.14 1017.78 1019.27 1020.07 1020.60 1021.07 1021.50 1022.48 1023.09 1023.43 1023.86 1024.22 1024.36 1024.16 1024.24 1023.97 1023.92 1023.84 1023.31 1022.74 1022.14 1021.68 1021.33 1020.98 1020.73 1020.57 1020.43 1020.16 1019.87
1016.95 1016.99 1017.00 1016.74 1016.08 1015.47 1013.98 1013.65 1013.77 1014.46 1014.37 1014.26 1015.14 1015.77 1016.84 1017.61 1018.74 1019.84 1020.54 1021.25 1021.48 1022.16 1022.69 1023.52 1024.04 1024.47 1024.67 1024.55 1024.58 1024.86 1024.86 1024.68 1024.33 1023.75 1023.05 1022.56 1022.11 1021.77 1021.19 1021.02 1020.78 1020.53 1020.35 1020.14
1017.37 1016.88 1016.90 1017.10 1016.73 1015.66 1014.94 1014.61 1014.64 1014.54 1014.83 1015.31 1015.59 1016.47 1017.02 1018.22 1019.18 1019.95 1020.87 1021.56 1022.23 1022.84 1023.52 1024.01 1024.42 1024.97 1025.13 1025.07 1025.11 1024.97 1024.92 1024.78 1024.60 1024.37 1023.90 1023.24 1022.54 1022.08 1021.99 1021.72 1021.37 1020.99 1020.78 1020.60
1017.23 1016.72 1017.18 1017.12 1016.73 1015.99 1015.57 1015.38 1015.19 1015.29 1015.71 1016.21 1016.56 1017.21 1017.68 1018.63 1019.55 1020.50 1021.36 1022.17 1022.75 1023.19 1023.70 1024.14 1024.70 1025.34 1025.74 1025.78 1025.68 1025.62 1025.37 1025.00 1024.75 1024.72 1024.41 1023.95 1023.56 1023.03 1022.46 1022.08 1021.91 1021.68 1021.55 1021.44
1017.46 1016.98 1017.31 1017.54 1016.95 1016.22 1016.06 1015.88 1015.77 1015.90 1016.15 1016.58 1017.07 1017.52 1018.23 1018.98 1020.08 1020.77 1021.83 1022.49 1023.09 1023.74 1024.22 1024.51 1025.13 1025.68 1026.05 1026.14 1026.16 1025.94 1025.83 1025.61 1025.54 1025.15 1024.70 1024.39 1023.92 1023.59 1023.16 1022.82 1022.44 1022.00 1021.94 1022.34
1018.02 1017.78 1017.87 1017.80 1017.50 1017.30 1016.37 1015.75 1015.81 1016.05 1016.47 1016.82 1017.36 1018.23 1018.88 1019.24 1020.40 1021.10 1021.98 1022.57 1023.24 1023.92 1024.45 1025.01 1025.37 1025.73 1026.04 1026.12 1026.18 1026.10 1026.07 1025.90 1025.85 1025.63 1025.39 1025.15 1024.82 1024.29 1023.74 1023.21 1022.32 1022.06 1022.08 1021.79
Thickness
5757 5742 5739 5757 5763 5769 5768 5761 5759 5763 5766 5744 5753 5751 5764 5770 5767 5771 5786 5785 5784 5786 5789 5793 5793 5788 5786 5784 5782 5781 5779 5778 5775 5771 5767 5762 5762 5763 5763 5764 5764 5764 5765 5765
5733 5729 5757 5768 5770 5767 5764 5754 5745 5756 5762 5759 5755 5746 5759 5766 5770 5781 5787 5783 5785 5784 5784 5787 5788 5788 5786 5782 5781 5781 5782 5779 5779 5775 5773 5771 5769 5765 5765 5766 5767 5766 5768 5768
5720 5747 5763 5760 5759 5757 5758 5749 5748 5750 5754 5745 5747 5750 5749 5755 5772 5782 5787 5785 5789 5786 5783 5784 5784 5785 5786 5781 5781 5779 5782 5782 5781 5779 5773 5771 5768 5767 5767 5768 5769 5770 5769 5769
5731 5752 5752 5749 5750 5759 5738 5778 5772 5757 5743 5728 5748 5721 5748 5758 5752 5771 5781 5783 5786 5788 5790 5789 5785 5783 5785 5784 5784 5782 5782 5783 5781 5782 5778 5774 5769 5764 5767 5770 5773 5774 5772 5770
5725 5740 5743 5744 5759 5769 5766 5785 5782 5765 5741 5735 5739 5732 5748 5761 5752 5764 5774 5784 5787 5794 5793 5789 5788 5786 5787 5786 5783 5784 5782 5783 5782 5782 5779 5776 5771 5773 5773 5773 5773 5775 5773 5772
5728 5758 5753 5759 5779 5782 5792 5776 5765 5748 5731 5715 5745 5740 5743 5750 5767 5761 5777 5779 5785 5789 5790 5790 5791 5789 5786 5786 5781 5782 5780 5781 5779 5780 5778 5776 5774 5774 5773 5771 5769 5770 5771 5772
5724 5735 5754 5766 5758 5776 5772 5738 5705 5701 5701 5715 5747 5737 5767 5777 5782 5786 5786 5781 5781 5775 5779 5785 5781 5783 5782 5782 5778 5779 5778 5776 5779 5777 5777 5776 5775 5776 5775 5773 5770 5771 5771 5771
5692 5698 5744 5768 5761 5754 5759 5742 5707 5706 5707 5725 5748 5733 5760 5790 5787 5787 5785 5778 5773 5772 5771 5769 5777 5779 5782 5782 5780 5780 5776 5774 5777 5775 5775 5779 5777 5777 5776 5778 5777 5774 5774 5776
5690 5705 5755 5766 5780 5772 5757 5736 5757 5739 5743 5721 5724 5746 5765 5774 5770 5775 5776 5778 5771 5768 5766 5762 5771 5779 5774 5770 5773 5776 5776 5776 5775 5777 5775 5775 5778 5779 5780 5780 5780 5781 5781 5779
5710 5699 5736 5753 5774 5775 5767 5768 5740 5722 5716 5704 5710 5713 5712 5739 5753 5768 5765 5762 5763 5762 5757 5757 5758 5766 5769 5767 5765 5765 5770 5771 5769 5772 5774 5777 5781 5782 5782 5779 5778 5781 5785 5784
5707 5703 5711 5738 5738 5734 5740 5732 5732 5729 5716 5701 5692 5688 5730 5732 5742 5747 5754 5755 5755 5754 5751 5751 5752 5761 5766 5763 5754 5756 5755 5765 5770 5772 5770 5774 5779 5781 5782 5781 5778 5780 5783 5784
5699 5688 5685 5711 5740 5755 5750 5742 5727 5703 5713 5702 5691 5688 5719 5727 5733 5742 5744 5749 5750 5746 5751 5750 5746 5748 5756 5760 5754 5750 5744 5754 5763 5767 5772 5770 5776 5779 5780 5781 5782 5783 5782 5783
5692 5675 5671 5692 5713 5728 5729 5741 5731 5719 5713 5704 5691 5678 5711 5717 5716 5724 5740 5742 5739 5739 5739 5737 5738 5745 5744 5747 5742 5738 5739 5746 5757 5758 5756 5756 5761 5770 5774 5778 5780 5781 5782 5781
5692 5667 5673 5663 5680 5698 5706 5720 5737 5718 5698 5696 5689 5695 5697 5703 5709 5715 5710 5726 5724 5727 5729 5730 5731 5735 5732 5739 5737 5735 5740 5749 5750 5748 5743 5745 5748 5755 5760 5766 5773 5777 5778 5779
5681 5661 5673 5682 5692 5704 5701 5712 5722 5724 5719 5709 5692 5699 5698 5699 5698 5700 5712 5706 5712 5716 5718 5719 5716 5720 5725 5726 5726 5736 5741 5745 5747 5740 5737 5736 5745 5751 5753 5755 5762 5767 5773 5775
5668 5657 5669 5665 5686 5690 5688 5706 5720 5721 5707 5701 5697 5686 5697 5701 5702 5698 5697 5700 5697 5699 5702 5702 5705 5708 5712 5716 5722 5729 5736 5738 5736 5734 5728 5739 5739 5747 5749 5742 5748 5758 5765 5770
5653 5651 5651 5644 5662 5678 5665 5683 5698 5709 5713 5711 5691 5695 5698 5691 5693 5686 5687 5688 5686 5691 5694 5692 5696 5699 5705 5706 5710 5715 5719 5725 5729 5729 5728 5734 5737 5736 5740 5741 5746 5750 5754 5760
5640 5639 5634 5636 5645 5636 5665 5683 5702 5695 5695 5697 5691 5693 5691 5688 5686 5683 5680 5678 5676 5680 5686 5686 5689 5689 5691 5695 5699 5705 5706 5710 5716 5718 5720 5723 5728 5731 5736 5739 5741 5743 5748 5755
5638 5625 5621 5621 5625 5647 5656 5663 5675 5679 5663 5686 5685 5682 5678 5674 5674 5667 5668 5672 5670 5667 5673 5676 5679 5678 5680 5685 5686 5687 5687 5691 5697 5704 5710 5716 5720 5723 5727 5730 5733 5737 5741 5747
5627 5617 5614 5607 5618 5624 5641 5658 5672 5680 5638 5668 5679 5675 5675 5672 5650 5652 5659 5663 5661 5660 5659 5660 5659 5659 5659 5661 5669 5670 5671 5675 5679 5686 5694 5702 5708 5714 5720 5724 5726 5728 5732 5736
5598 5604 5599 5597 5602 5619 5637 5644 5668 5630 5634 5660 5666 5664 5665 5655 5657 5652 5654 5652 5649 5649 5643 5642 5644 5643 5642 5643 5649 5653 5660 5662 5664 5671 5678 5687 5693 5699 5706 5711 5715 5719 5722 5725
5587 5582 5586 5593 5601 5600 5636 5640 5633 5640 5646 5653 5655 5651 5644 5646 5641 5637 5637 5638 5637 5635 5634 5628 5631 5631 5633 5636 5636 5636 5642 5647 5652 5661 5669 5675 5682 5687 5694 5698 5703 5709 5713 5717
5578 5588 5583 5587 5587 5607 5620 5623 5629 5634 5633 5636 5643 5641 5642 5635 5630 5628 5623 5624 5624 5623 5618 5615 5617 5616 5619 5624 5626 5629 5630 5633 5638 5643 5652 5660 5667 5673 5677 5681 5687 5693 5698 5702
5586 5594 5582 5585 5594 5604 5610 5616 5621 5624 5622 5622 5623 5622 5625 5620 5617 5614 5612 5609 5608 5605 5603 5602 5600 5597 5598 5603 5608 5612 5616 5620 5625 5627 5633 5640 5647 5654 5661 5666 5670 5675 5680 5685
5572 5585 5579 5576 5586 5597 5601 5605 5607 5610 5613 5612 5611 5611 5608 5607 5602 5601 5596 5594 5588 5586 5586 5586 5584 5583 5582 5585 5586 5590 5594 5600 5605 5611 5617 5622 5629 5635 5643 5647 5651 5658 5662 5663
5566 5567 5557 5557 5571 5573 5583 5597 5601 5600 5600 5601 5600 5595 5592 5595 5588 5587 5582 5577 5575 5573 5572 5568 5567 5569 5572 5572 5573 5575 5577 5581 5585 5592 5598 5602 5607 5614 5622 5630 5640 5643 5646 5653